Latham, NY

1:43 AM EDT on September 27, 2016 (GMT -0400)
Albany International

Weather History for KALB - July, 2013

Change the Weather History Date:

Tuesday, July 9, 2013

  Actual Average Record
Temperature  
Mean Temperature 79 °F 72 °F  
Max Temperature 87 °F 82 °F 103 °F (1936)
Min Temperature 70 °F 61 °F 41 °F (1963)
Degree Days  
Heating Degree Days 0 0  
Month to date heating degree days 0 0  
Since 1 June heating degree days 55 52  
Since 1 July heating degree days 0 0  
Cooling Degree Days 14 7  
Month to date cooling degree days 127 60  
Year to date cooling degree days 319 208  
Since 1 June cooling degree days 270 178  
Growing Degree Days 28 (Base 50)    
Moisture  
Dew Point 68 °F    
Average Humidity 76    
Maximum Humidity 100    
Minimum Humidity 51    
Precipitation  
Precipitation T in 0.14 in 2.07 in (2007)
Month to date precipitation 3.06 1.17  
Year to date precipitation 26.48 19.74  
Sea Level Pressure  
Sea Level Pressure 30.04 in    
Wind  
Wind Speed 3 mph (SSE)    
Max Wind Speed 12 mph    
Max Gust Speed 17 mph    
Visibility 7 miles    
Events Fog , Rain    
T = Trace of Precipitation, MM = Missing Value Source: NWS Daily Summary

Daily Weather History Graph

Daily Weather History Graph

Search for Another Location

Airport or City:

Trip Planner

Search our weather history database for the weather conditions in past years. The results will help you decide how hot, cold, wet, or windy it might be!

Date:

Astronomy

Jul. 09, 2013 Rise Set
Actual Time 5:25 AM EDT 8:34 PM EDT
Civil Twilight 4:51 AM EDT 9:08 PM EDT
Nautical Twilight 4:07 AM EDT 9:53 PM EDT
Astronomical Twilight 3:14 AM EDT 10:45 PM EDT
Moon 6:51 AM EDT (7/9) 9:06 PM EDT (7/9)
Length of Visible Light 16h 17m
Length of Day
15h 08m
New Moon, 2% of the Moon is Illuminated
Jul 9
New Moon
Jul 15
First Quarter
Jul 22
Full
Jul 29
Last Quarter
Aug 6
New

Hourly Weather History & Observations

Time (EDT) Temp. Heat Index Dew Point Humidity Pressure Visibility Wind Dir Wind Speed Gust Speed Precip Events Conditions
12:34 AM 71.6 °F - 69.8 °F 94% 30.05 in 10.0 mi Variable 3.5 mph - 0.01 in Rain Light Rain
12:51 AM 72.0 °F - 69.1 °F 91% 30.05 in 7.0 mi Calm Calm - 0.02 in Rain Light Rain
1:51 AM 71.1 °F - 69.1 °F 93% 30.03 in 10.0 mi Calm Calm - 0.01 in   Overcast
2:29 AM 71.6 °F - 68.0 °F 88% 30.03 in 10.0 mi Calm Calm - N/A   Overcast
2:51 AM 71.1 °F - 68.0 °F 90% 30.03 in 10.0 mi Calm Calm - N/A   Overcast
3:51 AM 70.0 °F - 68.0 °F 93% 30.03 in 8.0 mi Calm Calm - N/A   Scattered Clouds
4:21 AM 69.8 °F - 68.0 °F 94% 30.04 in 8.0 mi Calm Calm - N/A   Mostly Cloudy
4:51 AM 70.0 °F - 68.0 °F 93% 30.04 in 7.0 mi Calm Calm - N/A   Scattered Clouds
5:25 AM 69.8 °F - 68.0 °F 94% 30.05 in 1.0 mi Calm Calm - N/A   Mostly Cloudy
5:46 AM 69.8 °F - 68.0 °F 94% 30.06 in 0.2 mi Calm Calm - N/A Fog Fog
5:51 AM 70.0 °F - 68.0 °F 93% 30.06 in 0.2 mi Calm Calm - N/A Fog Fog
5:57 AM 69.8 °F - 68.0 °F 94% 30.06 in 0.1 mi Calm Calm - N/A Fog Fog
6:17 AM 69.8 °F - 68.0 °F 94% 30.06 in 0.1 mi Calm Calm - N/A Fog Fog
6:40 AM 69.8 °F - 69.8 °F 100% 30.07 in 0.2 mi Calm Calm - N/A Fog Fog
6:51 AM 70.0 °F - 69.1 °F 97% 30.07 in 0.2 mi Calm Calm - N/A Fog Fog
6:57 AM 69.8 °F - 69.8 °F 100% 30.07 in 0.2 mi Calm Calm - N/A Fog Fog
7:10 AM 69.8 °F - 69.8 °F 100% 30.08 in 1.0 mi Calm Calm - N/A   Overcast
7:30 AM 71.6 °F - 69.8 °F 94% 30.08 in 3.0 mi Calm Calm - N/A   Overcast
7:51 AM 72.0 °F - 69.1 °F 91% 30.08 in 3.0 mi Calm Calm - N/A   Overcast
8:51 AM 73.9 °F - 69.1 °F 85% 30.08 in 3.0 mi Calm Calm - N/A   Overcast
9:13 AM 73.4 °F - 69.8 °F 88% 30.08 in 3.0 mi Calm Calm - N/A   Overcast
9:51 AM 75.9 °F - 69.1 °F 79% 30.08 in 8.0 mi Calm Calm - N/A   Overcast
10:32 AM 75.2 °F - 69.8 °F 83% 30.08 in 10.0 mi ESE 3.5 mph - N/A   Overcast
10:51 AM 77.0 °F - 69.1 °F 76% 30.08 in 10.0 mi Calm Calm - N/A   Overcast
11:38 AM 78.8 °F - 68.0 °F 69% 30.07 in 10.0 mi Calm Calm - N/A   Mostly Cloudy
11:51 AM 80.1 °F 82.9 °F 69.1 °F 69% 30.06 in 10.0 mi Calm Calm - N/A   Mostly Cloudy
12:51 PM 81.0 °F 84.1 °F 69.1 °F 67% 30.04 in 10.0 mi Variable 3.5 mph - N/A   Mostly Cloudy
1:51 PM 84.0 °F 87.0 °F 68.0 °F 58% 30.04 in 10.0 mi Calm Calm - N/A   Mostly Cloudy
2:51 PM 84.9 °F 88.2 °F 68.0 °F 57% 30.01 in 10.0 mi South 4.6 mph - N/A   Mostly Cloudy
3:51 PM 84.9 °F 88.2 °F 68.0 °F 57% 30.00 in 10.0 mi SW 5.8 mph - N/A   Mostly Cloudy
4:51 PM 84.0 °F 85.8 °F 64.9 °F 53% 29.99 in 10.0 mi ESE 5.8 mph - N/A   Mostly Cloudy
5:51 PM 84.0 °F 87.0 °F 68.0 °F 58% 29.97 in 10.0 mi South 5.8 mph - N/A   Mostly Cloudy
6:51 PM 84.0 °F 86.3 °F 66.0 °F 55% 29.98 in 10.0 mi South 6.9 mph - N/A   Mostly Cloudy
7:51 PM 82.9 °F 85.8 °F 68.0 °F 60% 29.98 in 10.0 mi ESE 11.5 mph 16.1 mph N/A   Mostly Cloudy
8:51 PM 79.0 °F - 68.0 °F 69% 29.98 in 10.0 mi South 6.9 mph - N/A   Scattered Clouds
9:51 PM 75.9 °F - 68.0 °F 76% 29.99 in 10.0 mi SE 4.6 mph - N/A   Scattered Clouds
10:51 PM 75.9 °F - 68.0 °F 76% 29.99 in 10.0 mi SSE 6.9 mph - N/A   Mostly Cloudy
11:51 PM 75.0 °F - 68.0 °F 79% 29.99 in 10.0 mi South 5.8 mph - N/A   Mostly Cloudy